GFSFLT1_prec_precacc_225.txt.gz
Total_Precipitation_Accumulation
0.00 0.00 0.02 0.03 0.03 0.26 0.74 0.92 1.16 1.29 1.14 1.06 0.88 0.80 0.72 0.71 0.62 0.69 0.80 0.84 0.81 0.94 0.84 0.81 1.06 1.39 1.10 1.03 0.92 0.99 0.95 0.94
0.00 0.01 0.02 0.04 0.10 0.40 0.74 0.90 1.20 1.16 0.65 0.53 0.57 0.56 0.44 0.59 0.59 0.66 0.85 1.07 1.07 0.96 0.86 0.85 0.96 1.00 1.01 1.28 1.53 1.72 1.53 1.23
0.01 0.03 0.06 0.12 0.24 0.52 0.62 0.49 0.35 0.21 0.17 0.29 0.42 0.51 0.52 0.47 0.55 0.72 0.68 1.00 1.00 0.85 0.86 0.85 0.99 1.11 1.04 0.88 1.01 1.16 1.15 1.04
0.02 0.06 0.13 0.17 0.15 0.16 0.14 0.11 0.09 0.13 0.16 0.38 0.61 0.90 0.82 0.68 0.56 0.57 0.73 0.91 1.08 0.98 0.89 0.79 0.79 1.17 1.44 1.21 1.11 1.10 0.99 0.97
0.03 0.02 0.02 0.01 0.03 0.14 0.15 0.15 0.17 0.25 0.28 0.38 0.52 0.50 0.38 0.27 0.26 0.30 0.42 0.76 1.13 0.93 1.18 1.25 1.17 0.94 1.10 1.47 1.41 1.23 1.29 1.32
0.00 0.00 0.01 0.06 0.09 0.16 0.18 0.17 0.19 0.30 0.31 0.41 0.72 0.79 0.77 0.73 0.84 0.98 1.05 1.18 1.45 1.39 1.19 1.63 1.78 1.69 1.33 1.62 1.96 2.11 2.00 2.03
0.01 0.03 0.07 0.09 0.13 0.17 0.14 0.27 0.42 0.72 0.93 1.10 1.26 1.43 1.43 1.42 1.38 1.38 1.45 1.64 1.93 2.01 2.14 2.10 2.55 2.54 2.29 1.97 1.97 2.36 2.81 2.78
0.09 0.10 0.11 0.15 0.15 0.18 0.41 0.89 1.25 1.24 1.20 1.15 1.09 1.09 1.17 0.84 0.65 0.67 0.75 0.95 0.92 1.01 1.18 1.41 1.67 2.11 1.98 2.03 2.02 1.88 1.95 2.09
0.18 0.21 0.22 0.24 0.25 0.41 0.91 0.93 0.81 0.70 0.75 0.80 0.90 0.82 0.92 0.78 0.61 0.71 0.61 0.57 0.59 0.77 0.99 1.25 1.41 1.84 2.06 1.69 1.59 1.89 2.03 2.02
0.34 0.31 0.30 0.34 0.37 0.41 0.41 0.34 0.41 0.44 0.46 0.55 0.85 1.04 0.95 0.89 0.85 1.25 1.29 0.90 0.79 0.90 1.38 1.77 2.00 2.42 2.32 2.56 2.23 1.76 2.21 2.24
0.43 0.53 0.52 0.37 0.40 0.34 0.30 0.33 0.36 0.39 0.46 0.59 0.82 1.05 1.19 1.10 1.22 1.45 1.77 1.82 1.52 1.48 1.67 1.94 2.36 2.26 2.40 2.29 2.37 1.75 1.38 1.64
0.62 0.97 0.96 0.68 0.61 0.53 0.49 0.52 0.54 0.58 0.69 0.76 1.02 1.48 1.51 1.99 2.25 2.15 2.30 2.60 2.50 2.09 1.74 1.89 1.98 2.21 2.40 2.02 1.79 1.69 1.57 1.43
0.60 0.56 0.78 1.16 1.08 0.73 0.60 0.59 0.81 1.30 1.67 1.83 1.91 2.31 2.55 2.41 2.56 2.41 2.00 2.78 2.89 2.63 2.54 2.16 2.42 2.14 1.85 1.77 1.64 1.46 1.57 1.55
1.12 1.01 0.79 0.63 0.95 1.08 0.82 0.85 1.55 2.09 2.11 2.25 1.96 2.31 2.49 2.81 2.64 2.42 2.24 2.09 2.67 2.69 2.73 2.61 1.95 2.09 1.64 1.39 1.39 1.51 1.33 1.60
1.12 1.16 1.31 1.27 0.84 1.00 1.03 1.04 1.67 1.94 1.41 1.38 1.67 1.82 1.70 1.73 1.60 1.77 1.95 1.98 1.86 1.76 1.90 1.98 1.84 1.47 1.59 1.42 1.27 1.07 1.14 1.05
0.94 1.47 1.11 0.97 1.09 1.03 0.97 1.09 1.11 1.43 1.34 1.15 1.10 1.23 1.40 1.07 1.01 1.09 1.51 1.53 1.58 1.78 1.81 1.85 2.01 1.77 1.48 1.39 1.35 1.12 1.03 1.02
0.69 0.96 1.44 0.83 0.65 0.72 0.76 0.97 1.15 1.03 1.02 0.94 0.86 0.78 0.82 0.86 0.88 0.76 0.82 1.02 1.11 1.22 1.46 1.88 2.14 2.27 2.12 1.55 1.25 1.24 1.17 1.03
0.46 0.47 1.06 1.07 0.79 0.75 0.67 0.86 1.00 0.87 0.87 0.84 0.65 0.55 0.53 0.46 0.39 0.38 0.41 0.61 0.81 1.05 1.20 1.23 1.34 1.67 2.15 1.79 1.55 1.19 1.13 1.19
0.47 0.55 0.76 1.01 0.71 0.59 0.58 0.66 0.87 0.82 0.72 0.71 0.66 0.47 0.38 0.42 0.39 0.45 0.50 0.54 0.53 0.47 0.49 0.53 0.60 0.81 1.27 1.35 1.52 1.33 1.34 1.29

GFSFLT1_prec_precacc_228.txt.gz
Total_Precipitation_Accumulation
0.00 0.00 0.02 0.03 0.03 0.26 0.74 0.92 1.16 1.30 1.14 1.06 0.88 0.80 0.72 0.71 0.62 0.70 0.81 0.85 0.82 0.94 0.84 0.81 1.07 1.39 1.10 1.03 0.92 0.99 0.95 0.95
0.00 0.01 0.02 0.04 0.10 0.40 0.74 0.90 1.20 1.16 0.65 0.53 0.57 0.57 0.45 0.59 0.60 0.68 0.86 1.09 1.08 0.96 0.87 0.85 0.96 1.01 1.02 1.29 1.54 1.73 1.54 1.23
0.01 0.03 0.06 0.12 0.24 0.52 0.62 0.49 0.35 0.21 0.17 0.29 0.42 0.51 0.52 0.48 0.57 0.73 0.69 1.00 1.00 0.85 0.86 0.85 0.99 1.12 1.05 0.88 1.01 1.17 1.15 1.05
0.02 0.06 0.13 0.17 0.15 0.16 0.14 0.11 0.09 0.13 0.16 0.38 0.61 0.90 0.83 0.68 0.57 0.58 0.73 0.91 1.08 0.98 0.89 0.79 0.79 1.17 1.44 1.21 1.12 1.10 1.00 0.98
0.03 0.02 0.02 0.01 0.03 0.14 0.15 0.15 0.17 0.26 0.30 0.40 0.54 0.53 0.39 0.27 0.26 0.30 0.42 0.76 1.13 0.93 1.18 1.25 1.17 0.94 1.10 1.47 1.41 1.23 1.31 1.34
0.00 0.00 0.01 0.06 0.09 0.16 0.18 0.17 0.20 0.32 0.38 0.43 0.75 0.82 0.79 0.74 0.85 0.98 1.05 1.18 1.45 1.39 1.19 1.63 1.78 1.69 1.33 1.62 1.97 2.11 2.01 2.05
0.01 0.03 0.07 0.09 0.13 0.18 0.15 0.27 0.43 0.74 0.98 1.14 1.28 1.45 1.44 1.42 1.38 1.38 1.45 1.64 1.93 2.01 2.14 2.10 2.55 2.54 2.29 1.97 1.97 2.36 2.81 2.79
0.09 0.10 0.11 0.15 0.15 0.18 0.42 0.90 1.26 1.27 1.26 1.17 1.10 1.09 1.17 0.84 0.65 0.67 0.75 0.95 0.92 1.01 1.18 1.41 1.67 2.11 1.98 2.03 2.02 1.88 1.95 2.10
0.18 0.21 0.22 0.24 0.25 0.41 0.91 0.93 0.82 0.71 0.76 0.81 0.91 0.82 0.92 0.78 0.61 0.71 0.61 0.57 0.59 0.77 0.99 1.25 1.41 1.84 2.06 1.69 1.59 1.89 2.03 2.02
0.34 0.31 0.30 0.34 0.37 0.41 0.41 0.34 0.41 0.44 0.46 0.55 0.85 1.04 0.95 0.89 0.85 1.25 1.29 0.90 0.79 0.90 1.38 1.77 2.00 2.42 2.32 2.56 2.23 1.76 2.21 2.24
0.43 0.53 0.52 0.37 0.40 0.34 0.30 0.33 0.36 0.39 0.46 0.59 0.82 1.05 1.19 1.10 1.22 1.45 1.77 1.82 1.52 1.48 1.67 1.94 2.36 2.26 2.40 2.29 2.37 1.75 1.38 1.64
0.62 0.97 0.96 0.68 0.61 0.53 0.49 0.52 0.54 0.58 0.69 0.76 1.02 1.48 1.51 1.99 2.25 2.15 2.30 2.60 2.50 2.09 1.74 1.89 1.98 2.21 2.40 2.02 1.79 1.69 1.57 1.43
0.60 0.56 0.78 1.16 1.08 0.73 0.60 0.59 0.81 1.30 1.67 1.83 1.91 2.31 2.55 2.41 2.56 2.41 2.00 2.78 2.89 2.63 2.54 2.16 2.42 2.14 1.85 1.77 1.64 1.46 1.58 1.57
1.12 1.01 0.79 0.63 0.95 1.08 0.82 0.85 1.55 2.09 2.11 2.25 1.96 2.31 2.49 2.81 2.64 2.42 2.24 2.09 2.67 2.69 2.73 2.61 1.95 2.09 1.64 1.40 1.39 1.53 1.35 1.62
1.12 1.16 1.31 1.27 0.84 1.00 1.03 1.04 1.67 1.94 1.41 1.38 1.67 1.82 1.70 1.73 1.60 1.77 1.95 1.98 1.86 1.76 1.90 1.98 1.84 1.47 1.59 1.44 1.28 1.08 1.16 1.06
0.94 1.47 1.11 0.97 1.09 1.03 0.97 1.09 1.11 1.43 1.34 1.15 1.10 1.23 1.40 1.07 1.01 1.09 1.51 1.53 1.58 1.78 1.81 1.85 2.01 1.77 1.48 1.40 1.38 1.15 1.08 1.06
0.69 0.96 1.44 0.83 0.65 0.72 0.76 0.97 1.15 1.03 1.02 0.94 0.86 0.78 0.82 0.86 0.88 0.76 0.82 1.02 1.11 1.22 1.46 1.88 2.15 2.27 2.13 1.57 1.26 1.25 1.21 1.07
0.46 0.47 1.06 1.07 0.79 0.75 0.67 0.86 1.00 0.87 0.87 0.84 0.65 0.55 0.53 0.46 0.39 0.38 0.41 0.61 0.81 1.05 1.21 1.23 1.34 1.68 2.15 1.80 1.57 1.22 1.17 1.22
0.47 0.55 0.76 1.01 0.71 0.59 0.58 0.66 0.87 0.82 0.72 0.71 0.66 0.47 0.38 0.42 0.39 0.45 0.50 0.54 0.53 0.47 0.49 0.54 0.61 0.82 1.27 1.35 1.54 1.35 1.34 1.30

GFSFLT1_prec_precacc_234.txt.gz
Total_Precipitation_Accumulation
0.00 0.00 0.02 0.03 0.03 0.26 0.74 0.92 1.16 1.30 1.14 1.06 0.89 0.81 0.73 0.71 0.63 0.70 0.82 0.85 0.82 0.96 0.87 0.83 1.07 1.39 1.10 1.04 0.93 1.00 0.97 0.96
0.00 0.01 0.02 0.04 0.10 0.40 0.74 0.90 1.20 1.16 0.66 0.53 0.57 0.57 0.45 0.59 0.60 0.68 0.86 1.09 1.12 1.01 0.88 0.86 0.96 1.01 1.02 1.29 1.55 1.74 1.54 1.23
0.01 0.03 0.06 0.12 0.24 0.52 0.62 0.49 0.35 0.21 0.18 0.29 0.42 0.51 0.52 0.48 0.57 0.74 0.69 1.02 1.05 0.88 0.86 0.85 0.99 1.12 1.05 0.88 1.02 1.18 1.17 1.06
0.02 0.06 0.13 0.17 0.15 0.16 0.14 0.11 0.09 0.13 0.16 0.38 0.61 0.91 0.84 0.69 0.60 0.60 0.75 0.95 1.12 1.00 0.89 0.79 0.79 1.17 1.44 1.21 1.12 1.11 1.01 0.99
0.03 0.02 0.02 0.01 0.03 0.14 0.15 0.15 0.17 0.26 0.30 0.40 0.54 0.54 0.42 0.28 0.28 0.36 0.49 0.85 1.20 0.97 1.19 1.25 1.17 0.94 1.10 1.47 1.41 1.24 1.32 1.35
0.00 0.00 0.01 0.06 0.09 0.16 0.18 0.17 0.20 0.32 0.38 0.43 0.76 0.83 0.85 0.83 0.93 1.05 1.14 1.25 1.50 1.42 1.20 1.63 1.78 1.69 1.33 1.62 1.97 2.11 2.01 2.05
0.01 0.03 0.07 0.09 0.13 0.18 0.15 0.27 0.43 0.74 0.99 1.15 1.31 1.55 1.58 1.54 1.51 1.49 1.51 1.68 1.95 2.02 2.14 2.10 2.55 2.54 2.29 1.97 1.97 2.36 2.81 2.80
0.09 0.10 0.11 0.15 0.15 0.18 0.42 0.90 1.26 1.28 1.27 1.19 1.14 1.23 1.34 0.97 0.77 0.76 0.79 0.97 0.93 1.01 1.18 1.41 1.67 2.11 1.98 2.03 2.02 1.88 1.95 2.10
0.18 0.21 0.22 0.24 0.25 0.41 0.91 0.94 0.83 0.72 0.78 0.82 0.96 0.95 1.01 0.83 0.66 0.76 0.63 0.57 0.59 0.77 0.99 1.25 1.41 1.84 2.06 1.69 1.59 1.89 2.03 2.02
0.34 0.31 0.30 0.34 0.37 0.41 0.41 0.34 0.42 0.45 0.46 0.56 0.90 1.09 0.97 0.90 0.88 1.28 1.30 0.90 0.79 0.90 1.38 1.77 2.00 2.42 2.32 2.56 2.23 1.76 2.21 2.24
0.43 0.53 0.52 0.37 0.40 0.34 0.30 0.34 0.37 0.39 0.46 0.60 0.83 1.06 1.20 1.10 1.23 1.46 1.77 1.82 1.52 1.48 1.67 1.94 2.36 2.26 2.40 2.29 2.37 1.75 1.38 1.65
0.62 0.97 0.96 0.68 0.61 0.53 0.49 0.52 0.54 0.58 0.69 0.76 1.03 1.48 1.51 1.99 2.25 2.15 2.30 2.60 2.50 2.09 1.74 1.89 1.98 2.21 2.40 2.02 1.79 1.69 1.58 1.45
0.60 0.56 0.78 1.16 1.08 0.73 0.60 0.59 0.81 1.31 1.69 1.85 1.91 2.31 2.55 2.41 2.56 2.41 2.00 2.78 2.89 2.63 2.54 2.16 2.42 2.14 1.85 1.77 1.64 1.47 1.60 1.59
1.12 1.01 0.79 0.63 0.95 1.08 0.82 0.85 1.55 2.09 2.14 2.28 1.96 2.31 2.49 2.81 2.64 2.42 2.24 2.09 2.67 2.69 2.73 2.61 1.95 2.09 1.64 1.40 1.40 1.54 1.37 1.64
1.12 1.16 1.31 1.27 0.84 1.00 1.03 1.04 1.67 1.94 1.41 1.38 1.67 1.82 1.70 1.73 1.60 1.77 1.95 1.98 1.86 1.76 1.90 1.98 1.84 1.47 1.59 1.44 1.28 1.08 1.17 1.08
0.94 1.47 1.11 0.97 1.09 1.03 0.97 1.09 1.11 1.43 1.34 1.15 1.10 1.23 1.40 1.07 1.01 1.09 1.51 1.53 1.58 1.78 1.81 1.85 2.01 1.77 1.48 1.41 1.38 1.16 1.09 1.07
0.69 0.96 1.44 0.83 0.65 0.72 0.76 0.97 1.15 1.03 1.02 0.94 0.86 0.78 0.82 0.86 0.88 0.76 0.82 1.02 1.11 1.22 1.46 1.88 2.15 2.27 2.13 1.57 1.27 1.25 1.22 1.08
0.46 0.47 1.06 1.07 0.79 0.75 0.67 0.86 1.00 0.87 0.87 0.84 0.65 0.55 0.53 0.46 0.39 0.38 0.41 0.61 0.81 1.05 1.21 1.23 1.34 1.68 2.16 1.80 1.57 1.22 1.17 1.22
0.47 0.55 0.76 1.01 0.71 0.59 0.58 0.66 0.87 0.82 0.72 0.71 0.66 0.47 0.38 0.42 0.39 0.45 0.50 0.54 0.53 0.47 0.49 0.54 0.61 0.82 1.28 1.36 1.54 1.35 1.34 1.30

GFSFLT1_prec_precacc_237.txt.gz
Total_Precipitation_Accumulation
0.00 0.00 0.02 0.03 0.03 0.26 0.74 0.92 1.16 1.30 1.14 1.06 0.89 0.81 0.73 0.71 0.63 0.70 0.82 0.85 0.82 0.96 0.87 0.83 1.07 1.39 1.10 1.04 0.93 1.00 0.97 0.96
0.00 0.01 0.02 0.04 0.10 0.40 0.74 0.90 1.20 1.16 0.66 0.53 0.57 0.57 0.45 0.59 0.60 0.68 0.86 1.09 1.12 1.01 0.89 0.87 0.97 1.01 1.02 1.29 1.55 1.74 1.54 1.23
0.01 0.03 0.06 0.12 0.24 0.52 0.62 0.49 0.35 0.21 0.18 0.29 0.42 0.51 0.52 0.48 0.57 0.74 0.69 1.02 1.05 0.88 0.87 0.87 1.00 1.12 1.05 0.88 1.02 1.18 1.17 1.06
0.02 0.06 0.13 0.17 0.15 0.16 0.14 0.11 0.09 0.13 0.16 0.38 0.61 0.91 0.84 0.69 0.60 0.60 0.75 0.95 1.13 1.01 0.90 0.81 0.79 1.18 1.44 1.21 1.12 1.11 1.01 0.99
0.03 0.02 0.02 0.01 0.03 0.14 0.15 0.15 0.17 0.26 0.30 0.40 0.54 0.54 0.42 0.28 0.28 0.36 0.49 0.85 1.20 0.98 1.26 1.33 1.20 0.94 1.10 1.47 1.41 1.24 1.32 1.35
0.00 0.00 0.01 0.06 0.09 0.16 0.18 0.17 0.21 0.32 0.38 0.43 0.76 0.83 0.85 0.83 0.93 1.05 1.14 1.27 1.55 1.52 1.35 1.77 1.83 1.69 1.33 1.62 1.97 2.11 2.01 2.05
0.01 0.03 0.07 0.09 0.13 0.18 0.15 0.27 0.43 0.74 0.99 1.15 1.31 1.55 1.58 1.54 1.51 1.50 1.54 1.73 2.04 2.15 2.28 2.19 2.57 2.54 2.29 1.97 1.97 2.36 2.81 2.80
0.09 0.10 0.11 0.15 0.15 0.18 0.42 0.90 1.26 1.28 1.27 1.19 1.14 1.23 1.34 0.98 0.78 0.78 0.81 1.01 1.02 1.10 1.29 1.46 1.67 2.11 1.98 2.03 2.02 1.88 1.95 2.10
0.18 0.21 0.22 0.24 0.25 0.41 0.91 0.94 0.83 0.72 0.78 0.82 0.96 0.95 1.01 0.84 0.66 0.77 0.67 0.63 0.67 0.86 1.07 1.27 1.41 1.84 2.06 1.69 1.59 1.89 2.03 2.02
0.34 0.31 0.30 0.34 0.37 0.41 0.41 0.34 0.42 0.45 0.46 0.56 0.90 1.09 0.98 0.91 0.88 1.30 1.34 0.95 0.84 0.95 1.42 1.78 2.00 2.42 2.32 2.56 2.23 1.76 2.21 2.24
0.43 0.53 0.52 0.37 0.40 0.34 0.30 0.34 0.37 0.39 0.46 0.60 0.83 1.06 1.20 1.12 1.26 1.49 1.80 1.84 1.54 1.51 1.69 1.94 2.36 2.26 2.40 2.29 2.37 1.75 1.38 1.65
0.62 0.97 0.96 0.68 0.61 0.53 0.49 0.52 0.54 0.58 0.69 0.76 1.03 1.49 1.52 2.00 2.27 2.16 2.31 2.62 2.51 2.10 1.74 1.89 1.98 2.21 2.40 2.02 1.79 1.69 1.58 1.45
0.60 0.56 0.78 1.16 1.08 0.73 0.60 0.59 0.81 1.31 1.69 1.85 1.91 2.31 2.56 2.43 2.57 2.41 2.01 2.79 2.89 2.63 2.54 2.16 2.42 2.14 1.85 1.77 1.64 1.47 1.61 1.59
1.12 1.01 0.79 0.63 0.95 1.08 0.82 0.85 1.55 2.09 2.15 2.30 2.00 2.35 2.52 2.82 2.64 2.43 2.24 2.10 2.67 2.69 2.73 2.61 1.95 2.09 1.64 1.40 1.40 1.54 1.37 1.64
1.12 1.16 1.31 1.27 0.84 1.00 1.03 1.04 1.67 1.94 1.41 1.38 1.67 1.83 1.71 1.73 1.62 1.78 1.95 1.98 1.86 1.76 1.90 1.98 1.84 1.47 1.60 1.45 1.30 1.08 1.17 1.08
0.94 1.47 1.11 0.97 1.09 1.03 0.97 1.09 1.11 1.43 1.34 1.15 1.10 1.23 1.40 1.07 1.01 1.09 1.51 1.53 1.58 1.78 1.81 1.85 2.02 1.78 1.51 1.43 1.38 1.16 1.09 1.07
0.69 0.96 1.44 0.83 0.65 0.72 0.76 0.97 1.15 1.03 1.02 0.94 0.86 0.78 0.82 0.86 0.88 0.76 0.82 1.02 1.11 1.22 1.46 1.89 2.16 2.30 2.16 1.58 1.27 1.25 1.22 1.08
0.46 0.47 1.06 1.07 0.79 0.75 0.67 0.86 1.00 0.87 0.87 0.84 0.65 0.55 0.53 0.46 0.39 0.38 0.41 0.61 0.81 1.06 1.22 1.24 1.36 1.70 2.17 1.80 1.57 1.22 1.17 1.22
0.47 0.55 0.76 1.01 0.71 0.59 0.58 0.66 0.87 0.82 0.72 0.71 0.66 0.47 0.38 0.42 0.39 0.45 0.50 0.54 0.53 0.47 0.49 0.54 0.61 0.82 1.28 1.36 1.54 1.35 1.34 1.30

GFSFLT1_prec_precacc_240.txt.gz
Total_Precipitation_Accumulation
0.00 0.00 0.02 0.03 0.03 0.26 0.74 0.92 1.16 1.30 1.14 1.06 0.89 0.81 0.73 0.71 0.63 0.70 0.82 0.85 0.82 0.96 0.87 0.83 1.07 1.39 1.10 1.04 0.93 1.00 0.97 0.96
0.00 0.01 0.02 0.04 0.10 0.40 0.74 0.90 1.20 1.16 0.66 0.53 0.57 0.57 0.45 0.59 0.60 0.68 0.86 1.09 1.12 1.01 0.89 0.87 0.97 1.01 1.02 1.29 1.55 1.74 1.54 1.23
0.01 0.03 0.06 0.12 0.24 0.52 0.62 0.49 0.35 0.21 0.18 0.29 0.42 0.51 0.52 0.48 0.57 0.74 0.69 1.02 1.05 0.88 0.87 0.87 1.00 1.12 1.05 0.88 1.02 1.18 1.17 1.06
0.02 0.06 0.13 0.17 0.15 0.16 0.14 0.11 0.09 0.13 0.16 0.38 0.61 0.91 0.84 0.69 0.60 0.60 0.75 0.95 1.13 1.01 0.90 0.81 0.80 1.19 1.47 1.22 1.12 1.11 1.01 0.99
0.03 0.02 0.02 0.01 0.03 0.14 0.15 0.15 0.17 0.26 0.30 0.40 0.54 0.54 0.42 0.28 0.28 0.36 0.49 0.85 1.20 0.99 1.27 1.35 1.21 1.00 1.17 1.50 1.42 1.24 1.32 1.35
0.00 0.00 0.01 0.06 0.09 0.16 0.18 0.17 0.21 0.32 0.38 0.43 0.76 0.83 0.85 0.83 0.94 1.06 1.14 1.27 1.55 1.53 1.40 1.85 1.91 1.76 1.40 1.74 2.12 2.13 2.01 2.05
0.01 0.03 0.07 0.09 0.13 0.18 0.15 0.27 0.43 0.74 0.99 1.15 1.31 1.55 1.58 1.55 1.52 1.51 1.54 1.73 2.05 2.17 2.35 2.33 2.72 2.63 2.41 2.18 2.08 2.36 2.81 2.80
0.09 0.10 0.11 0.15 0.15 0.18 0.42 0.90 1.26 1.28 1.27 1.19 1.14 1.23 1.34 0.98 0.78 0.78 0.81 1.01 1.02 1.11 1.33 1.60 1.83 2.21 2.19 2.43 2.12 1.88 1.95 2.10
0.18 0.21 0.22 0.24 0.25 0.41 0.91 0.94 0.83 0.72 0.78 0.82 0.96 0.95 1.01 0.84 0.66 0.77 0.67 0.64 0.68 0.88 1.13 1.39 1.53 1.96 2.24 1.80 1.60 1.89 2.03 2.02
0.34 0.31 0.30 0.34 0.37 0.41 0.41 0.34 0.42 0.45 0.46 0.56 0.90 1.09 0.98 0.91 0.88 1.31 1.35 0.97 0.91 1.03 1.50 1.87 2.16 2.75 2.57 2.68 2.24 1.76 2.21 2.24
0.43 0.53 0.52 0.37 0.40 0.34 0.30 0.34 0.37 0.39 0.46 0.60 0.83 1.06 1.21 1.12 1.26 1.50 1.81 1.88 1.62 1.62 1.85 2.09 2.55 2.46 2.46 2.29 2.37 1.75 1.38 1.65
0.62 0.97 0.96 0.68 0.61 0.53 0.49 0.52 0.54 0.58 0.69 0.76 1.03 1.49 1.52 2.00 2.28 2.18 2.34 2.68 2.59 2.17 1.78 1.93 2.02 2.23 2.40 2.02 1.79 1.69 1.58 1.45
0.60 0.56 0.78 1.16 1.08 0.73 0.60 0.59 0.81 1.31 1.69 1.85 1.91 2.31 2.56 2.43 2.59 2.46 2.06 2.83 2.93 2.66 2.58 2.19 2.43 2.14 1.85 1.77 1.64 1.47 1.61 1.60
1.12 1.01 0.79 0.63 0.95 1.08 0.82 0.85 1.55 2.09 2.15 2.30 2.00 2.35 2.52 2.84 2.67 2.47 2.28 2.12 2.68 2.70 2.75 2.62 1.95 2.09 1.64 1.40 1.40 1.54 1.38 1.66
1.12 1.16 1.31 1.27 0.84 1.00 1.03 1.04 1.67 1.94 1.41 1.38 1.67 1.83 1.71 1.73 1.62 1.78 1.96 1.99 1.86 1.76 1.90 1.98 1.84 1.47 1.60 1.45 1.30 1.10 1.18 1.09
0.94 1.47 1.11 0.97 1.09 1.03 0.97 1.09 1.11 1.43 1.34 1.15 1.10 1.24 1.40 1.07 1.01 1.09 1.51 1.53 1.58 1.78 1.81 1.85 2.02 1.78 1.51 1.43 1.40 1.16 1.09 1.08
0.69 0.96 1.44 0.83 0.65 0.72 0.76 0.97 1.15 1.03 1.02 0.94 0.86 0.78 0.83 0.86 0.88 0.76 0.82 1.02 1.11 1.22 1.46 1.89 2.16 2.30 2.16 1.59 1.27 1.26 1.22 1.08
0.46 0.47 1.06 1.07 0.79 0.75 0.67 0.86 1.00 0.87 0.87 0.84 0.65 0.55 0.53 0.46 0.39 0.38 0.41 0.61 0.81 1.06 1.22 1.24 1.36 1.70 2.17 1.81 1.57 1.22 1.18 1.22
0.47 0.55 0.76 1.01 0.71 0.59 0.58 0.66 0.87 0.82 0.72 0.71 0.66 0.47 0.38 0.42 0.39 0.45 0.50 0.54 0.53 0.47 0.49 0.54 0.61 0.83 1.29 1.36 1.55 1.36 1.35 1.30

GFSFLT1_prec_precacc_243.txt.gz
Total_Precipitation_Accumulation
0.00 0.00 0.02 0.03 0.03 0.26 0.74 0.92 1.16 1.30 1.14 1.06 0.89 0.81 0.73 0.71 0.63 0.70 0.82 0.85 0.82 0.96 0.87 0.83 1.07 1.39 1.10 1.04 0.93 1.00 0.97 0.96
0.00 0.01 0.02 0.04 0.10 0.40 0.74 0.90 1.20 1.16 0.66 0.53 0.57 0.57 0.45 0.59 0.60 0.68 0.86 1.09 1.12 1.01 0.89 0.87 0.97 1.01 1.02 1.29 1.55 1.74 1.55 1.24
0.01 0.03 0.06 0.12 0.24 0.52 0.62 0.49 0.35 0.21 0.18 0.29 0.42 0.51 0.52 0.48 0.57 0.74 0.69 1.02 1.05 0.88 0.87 0.87 1.00 1.12 1.05 0.89 1.02 1.18 1.17 1.07
0.02 0.06 0.13 0.17 0.15 0.16 0.14 0.11 0.09 0.13 0.16 0.38 0.61 0.91 0.84 0.69 0.60 0.60 0.75 0.95 1.13 1.01 0.91 0.81 0.80 1.20 1.48 1.24 1.15 1.13 1.03 1.01
0.03 0.02 0.02 0.01 0.03 0.14 0.15 0.15 0.17 0.26 0.30 0.40 0.54 0.54 0.42 0.28 0.31 0.39 0.50 0.85 1.20 0.99 1.27 1.36 1.22 1.01 1.19 1.55 1.51 1.33 1.45 1.51
0.00 0.00 0.01 0.06 0.09 0.16 0.18 0.17 0.21 0.32 0.38 0.43 0.76 0.83 0.85 0.83 0.96 1.09 1.17 1.30 1.56 1.53 1.40 1.85 1.91 1.77 1.45 1.82 2.43 2.69 2.61 2.75
0.01 0.03 0.07 0.09 0.13 0.18 0.15 0.27 0.43 0.74 0.99 1.15 1.31 1.55 1.58 1.55 1.53 1.52 1.56 1.74 2.05 2.17 2.35 2.33 2.72 2.65 2.47 2.27 2.45 3.20 3.75 3.39
0.09 0.10 0.11 0.15 0.15 0.18 0.42 0.90 1.26 1.28 1.27 1.19 1.14 1.23 1.34 0.98 0.78 0.78 0.82 1.01 1.02 1.11 1.33 1.60 1.84 2.26 2.26 2.66 2.95 2.63 2.36 2.30
0.18 0.21 0.22 0.24 0.25 0.41 0.91 0.94 0.83 0.72 0.78 0.82 0.96 0.95 1.01 0.84 0.66 0.77 0.67 0.64 0.68 0.88 1.13 1.40 1.54 2.01 2.34 2.03 2.01 2.31 2.31 2.07
0.34 0.31 0.30 0.34 0.37 0.41 0.41 0.34 0.42 0.45 0.46 0.56 0.90 1.09 0.98 0.91 0.88 1.31 1.35 0.97 0.91 1.04 1.51 1.90 2.19 2.85 2.96 3.33 2.93 2.20 2.41 2.26
0.43 0.53 0.52 0.37 0.40 0.34 0.30 0.34 0.37 0.39 0.46 0.60 0.83 1.06 1.21 1.12 1.26 1.50 1.82 1.89 1.64 1.64 1.88 2.16 2.64 2.57 2.72 2.57 2.51 1.79 1.39 1.65
0.62 0.97 0.96 0.68 0.61 0.53 0.49 0.52 0.54 0.58 0.69 0.76 1.03 1.49 1.52 2.00 2.28 2.18 2.34 2.69 2.60 2.19 1.84 1.98 2.08 2.31 2.46 2.05 1.80 1.70 1.58 1.45
0.60 0.56 0.78 1.16 1.08 0.73 0.60 0.59 0.81 1.31 1.69 1.85 1.91 2.31 2.56 2.43 2.59 2.46 2.06 2.83 2.94 2.68 2.61 2.24 2.49 2.19 1.88 1.78 1.65 1.47 1.61 1.60
1.12 1.01 0.79 0.63 0.95 1.08 0.82 0.85 1.55 2.09 2.15 2.30 2.00 2.35 2.52 2.84 2.67 2.47 2.28 2.12 2.68 2.70 2.75 2.64 1.96 2.10 1.64 1.40 1.40 1.54 1.38 1.66
1.12 1.16 1.31 1.27 0.84 1.00 1.03 1.04 1.67 1.94 1.41 1.38 1.67 1.83 1.71 1.73 1.62 1.78 1.96 1.99 1.86 1.76 1.90 1.98 1.85 1.48 1.60 1.45 1.30 1.10 1.18 1.09
0.94 1.47 1.11 0.97 1.09 1.03 0.97 1.09 1.11 1.43 1.34 1.15 1.10 1.24 1.40 1.07 1.01 1.09 1.51 1.53 1.59 1.79 1.82 1.85 2.02 1.78 1.51 1.43 1.40 1.16 1.09 1.08
0.69 0.96 1.44 0.83 0.65 0.72 0.76 0.97 1.15 1.03 1.02 0.94 0.86 0.78 0.83 0.86 0.88 0.76 0.82 1.02 1.11 1.22 1.46 1.89 2.16 2.30 2.16 1.59 1.27 1.26 1.22 1.08
0.46 0.47 1.06 1.07 0.79 0.75 0.67 0.86 1.00 0.87 0.87 0.84 0.65 0.55 0.53 0.46 0.40 0.38 0.41 0.61 0.81 1.06 1.22 1.24 1.36 1.70 2.17 1.81 1.57 1.22 1.18 1.22
0.47 0.55 0.76 1.01 0.71 0.59 0.58 0.66 0.87 0.82 0.72 0.71 0.66 0.47 0.38 0.42 0.41 0.46 0.51 0.55 0.54 0.47 0.50 0.55 0.61 0.83 1.30 1.37 1.55 1.36 1.35 1.31

GFSFLT1_prec_precacc_246.txt.gz
Total_Precipitation_Accumulation
0.00 0.00 0.02 0.03 0.03 0.26 0.74 0.92 1.16 1.30 1.14 1.06 0.89 0.81 0.73 0.71 0.63 0.70 0.82 0.85 0.82 0.96 0.87 0.83 1.07 1.39 1.10 1.04 0.93 1.00 0.97 0.96
0.00 0.01 0.02 0.04 0.10 0.40 0.74 0.90 1.20 1.16 0.66 0.53 0.57 0.57 0.45 0.59 0.60 0.68 0.86 1.09 1.12 1.01 0.89 0.87 0.97 1.01 1.02 1.29 1.55 1.74 1.55 1.24
0.01 0.03 0.06 0.12 0.24 0.52 0.62 0.49 0.35 0.21 0.18 0.29 0.42 0.51 0.52 0.48 0.57 0.74 0.69 1.02 1.05 0.88 0.87 0.87 1.00 1.12 1.05 0.89 1.02 1.18 1.17 1.08
0.02 0.06 0.13 0.17 0.15 0.16 0.14 0.11 0.09 0.13 0.16 0.38 0.61 0.91 0.84 0.69 0.60 0.60 0.75 0.95 1.13 1.01 0.91 0.82 0.81 1.22 1.49 1.25 1.18 1.17 1.07 1.05
0.03 0.02 0.02 0.01 0.03 0.14 0.15 0.15 0.17 0.26 0.30 0.40 0.54 0.54 0.42 0.28 0.31 0.40 0.51 0.86 1.20 0.99 1.29 1.45 1.31 1.11 1.26 1.63 1.63 1.46 1.54 1.59
0.00 0.00 0.01 0.06 0.09 0.16 0.18 0.17 0.21 0.32 0.38 0.43 0.76 0.83 0.85 0.83 0.96 1.11 1.20 1.37 1.63 1.58 1.44 1.89 1.93 1.79 1.49 1.88 2.50 2.85 2.82 3.23
0.01 0.03 0.07 0.09 0.13 0.18 0.15 0.27 0.43 0.74 0.99 1.15 1.31 1.55 1.58 1.55 1.53 1.52 1.58 1.78 2.09 2.20 2.37 2.33 2.72 2.66 2.49 2.31 2.50 3.29 3.84 3.57
0.09 0.10 0.11 0.15 0.15 0.18 0.42 0.90 1.26 1.28 1.27 1.19 1.14 1.23 1.34 0.98 0.78 0.79 0.82 1.03 1.04 1.13 1.34 1.61 1.84 2.26 2.28 2.67 2.99 2.71 2.51 2.58
0.18 0.21 0.22 0.24 0.25 0.41 0.91 0.94 0.83 0.72 0.78 0.82 0.96 0.95 1.01 0.84 0.66 0.77 0.67 0.64 0.68 0.89 1.13 1.40 1.55 2.02 2.34 2.07 2.10 2.45 2.63 2.58
0.34 0.31 0.30 0.34 0.37 0.41 0.41 0.34 0.42 0.45 0.46 0.56 0.90 1.09 0.98 0.91 0.88 1.31 1.35 0.97 0.91 1.04 1.51 1.90 2.19 2.86 2.99 3.43 3.06 2.35 2.58 2.39
0.43 0.53 0.52 0.37 0.40 0.34 0.30 0.34 0.37 0.39 0.46 0.60 0.83 1.06 1.21 1.12 1.26 1.50 1.82 1.89 1.64 1.64 1.88 2.16 2.64 2.59 2.79 2.68 2.63 1.92 1.50 1.69
0.62 0.97 0.96 0.68 0.61 0.53 0.49 0.52 0.54 0.58 0.69 0.76 1.03 1.49 1.52 2.00 2.28 2.18 2.34 2.69 2.60 2.19 1.84 1.99 2.09 2.34 2.50 2.10 1.85 1.75 1.62 1.47
0.60 0.56 0.78 1.16 1.08 0.73 0.60 0.59 0.81 1.31 1.69 1.85 1.91 2.31 2.56 2.43 2.59 2.46 2.06 2.83 2.94 2.68 2.61 2.24 2.50 2.20 1.88 1.80 1.66 1.47 1.61 1.60
1.12 1.01 0.79 0.63 0.95 1.08 0.82 0.85 1.55 2.09 2.15 2.30 2.00 2.35 2.52 2.84 2.67 2.47 2.28 2.12 2.68 2.70 2.75 2.64 1.97 2.10 1.65 1.40 1.40 1.54 1.38 1.66
1.12 1.16 1.31 1.27 0.84 1.00 1.03 1.04 1.67 1.94 1.41 1.38 1.67 1.83 1.71 1.73 1.62 1.78 1.96 1.99 1.86 1.76 1.90 1.98 1.85 1.48 1.61 1.46 1.31 1.11 1.19 1.09
0.94 1.47 1.11 0.97 1.09 1.03 0.97 1.09 1.11 1.43 1.34 1.15 1.10 1.24 1.40 1.07 1.01 1.09 1.51 1.53 1.59 1.79 1.82 1.86 2.03 1.78 1.51 1.43 1.41 1.17 1.09 1.08
0.69 0.96 1.44 0.83 0.65 0.72 0.76 0.97 1.15 1.03 1.02 0.94 0.86 0.78 0.83 0.86 0.88 0.76 0.83 1.04 1.16 1.27 1.49 1.93 2.19 2.32 2.18 1.60 1.28 1.26 1.22 1.08
0.46 0.47 1.06 1.07 0.79 0.75 0.67 0.86 1.00 0.87 0.87 0.84 0.65 0.55 0.53 0.46 0.40 0.39 0.45 0.68 0.86 1.09 1.25 1.28 1.39 1.72 2.18 1.82 1.58 1.22 1.18 1.23
0.47 0.55 0.76 1.01 0.71 0.59 0.58 0.66 0.87 0.82 0.72 0.71 0.66 0.47 0.38 0.42 0.42 0.48 0.53 0.57 0.56 0.50 0.52 0.58 0.64 0.85 1.32 1.38 1.55 1.36 1.35 1.31